Location: Marcé
(47.5801°N, 0.3280°W)
Time: 02:07:48
(UTC+02:00)

RAPIDEYE 2 - Pass Details

Date: 02 July 2022
Orbit: 570 x 584 km, 97.6° (Epoch: 14 August)

Event Time Altitude Azimuth Distance (km) Brightness Sun altitude
Exits shadow 22:53:15 - 168° (SSE) 2,261 ? -7.3°
Reaches altitude 10° 22:54:11 10° 168° (SSE) 1,868 ? -7.4°
Maximum altitude 22:58:14 83° 256° (WSW) 581 ? -7.9°
Drops below altitude 10° 23:02:20 10° 346° (NNW) 1,884 ? -8.3°
Sets 23:04:29 0° 347° (NNW) 2,788 ? -8.6°
